Wind_Speed
70 68 64 61 59 59 57 59 58 56 55 55 55 53 57 53 52 49 49 48 55 48 50 49 47 48 50 51 53 42 37 32 28 25 21 20 17 15 16 14 10 8 9 10 11
71 69 69 64 62 59 59 62 60 58 59 58 56 53 54 49 48 48 47 45 46 41 46 41 41 46 47 52 47 41 36 31 27 25 23 21 17 13 14 17 12 11 11 11 11
73 72 70 68 64 62 59 57 57 58 56 55 58 56 53 52 50 48 46 44 44 44 42 43 43 44 47 50 47 41 35 30 27 24 23 20 19 14 16 16 17 13 13 13 13
76 73 73 70 69 64 62 59 58 58 58 58 57 56 56 54 53 51 47 46 45 43 43 42 40 40 45 46 44 39 33 30 27 24 23 21 17 14 19 17 16 18 16 15 14
76 76 73 72 71 70 66 64 62 61 59 58 58 57 55 53 53 52 50 50 48 47 43 42 42 43 46 46 40 38 34 30 27 26 26 24 20 15 20 19 19 19 20 18 17
67 78 76 74 73 73 71 68 67 64 62 59 58 58 56 56 53 53 53 51 50 48 44 44 45 46 48 47 40 36 33 32 30 29 30 28 22 19 22 22 22 22 22 21 20
75 71 72 76 74 75 75 72 71 68 67 64 62 59 59 56 57 55 54 54 52 49 46 47 49 50 49 49 44 37 35 33 30 30 32 30 26 23 23 24 24 24 24 24 24
82 79 76 69 80 77 77 77 76 74 72 69 68 66 64 63 59 58 58 56 52 52 49 49 50 50 48 48 44 39 36 35 33 32 34 33 31 28 28 30 27 28 26 25 24
83 83 84 78 77 80 79 79 78 78 76 73 72 69 67 64 64 62 61 59 57 56 54 52 49 49 50 47 46 43 39 38 38 37 34 32 35 28 31 33 32 30 28 28 26
91 83 84 89 82 82 84 82 81 79 80 79 77 74 71 68 65 63 63 61 60 58 57 55 52 51 53 51 47 42 41 43 43 41 34 31 35 31 31 35 37 36 34 32 29
96 90 88 87 91 86 87 87 86 82 81 81 79 77 76 77 72 69 65 64 63 61 58 57 53 52 59 52 48 47 46 46 49 42 34 33 33 34 31 36 39 39 39 37 34
90 91 89 93 91 93 91 89 89 82 84 82 82 80 79 80 78 75 72 68 67 64 62 58 54 62 58 53 52 52 51 51 51 46 36 35 28 34 33 34 38 41 43 39 36
93 96 94 93 93 93 95 95 93 92 84 77 87 82 83 81 79 78 76 72 71 68 66 63 62 63 61 57 57 58 56 57 52 50 39 36 24 32 39 37 39 45 46 42 38
97 98 96 97 95 101 98 97 98 94 96 90 85 81 84 82 79 78 77 77 75 73 72 67 64 67 67 66 66 62 64 60 57 52 49 40 23 33 43 42 44 51 47 45 39
96 97 100 101 100 102 101 100 99 105 104 96 92 87 82 87 78 83 82 80 77 78 78 71 73 72 71 70 73 67 69 68 65 61 53 39 38 29 45 43 51 53 52 50 44
98 100 103 104 105 107 104 103 105 107 107 99 93 92 91 87 82 87 87 85 80 81 79 76 75 76 74 76 78 75 75 74 72 69 60 47 54 26 43 45 52 57 61 54 47
100 103 105 106 107 108 108 108 109 110 104 103 102 96 96 95 90 88 86 87 86 84 80 81 78 79 79 78 79 78 78 80 79 73 62 58 55 31 42 46 53 59 64 64 57
106 103 105 107 110 110 113 114 113 110 103 106 104 105 101 100 98 93 93 90 87 86 85 85 83 80 79 81 84 86 83 81 79 77 72 67 50 42 47 51 55 56 55 62 63
106 106 106 110 107 112 115 122 114 106 106 104 108 106 103 102 102 101 97 94 91 90 91 91 88 86 82 85 88 86 84 82 87 80 78 68 61 54 53 54 59 57 55 55 56
122 116 112 112 112 111 113 116 116 110 107 110 112 112 110 104 104 104 103 98 96 96 96 97 94 90 89 90 90 87 85 86 87 86 86 75 67 59 58 59 59 59 58 60 57
131 125 120 122 118 116 113 107 106 110 115 119 113 113 111 110 110 107 105 102 102 101 104 102 100 93 93 90 89 94 91 91 92 92 90 83 70 62 59 59 60 62 62 67 65
136 135 132 127 126 122 118 113 108 110 110 112 113 118 114 114 114 115 108 103 106 107 107 105 106 103 99 97 97 94 93 94 96 93 94 89 69 63 63 65 67 69 69 69 71
136 138 138 138 133 126 123 119 113 112 114 113 110 110 113 121 121 112 112 108 110 110 109 108 113 109 105 101 96 94 93 89 91 94 93 90 71 62 70 70 72 72 74 74 72
125 129 134 142 140 138 133 131 127 128 125 119 114 112 111 111 113 112 112 117 115 112 113 113 115 112 109 107 108 105 101 102 105 106 89 96 74 71 71 72 74 78 77 77 77
112 117 125 131 138 145 143 141 136 134 132 129 126 120 118 118 116 112 107 105 118 118 121 121 123 120 113 111 111 110 109 109 109 100 107 87 94 70 76 75 80 82 83 82 81
106 108 114 119 124 131 141 143 143 141 140 138 133 128 131 129 123 121 118 113 110 107 120 127 133 125 122 118 116 114 113 110 106 101 102 92 97 74 80 89 89 89 87 84 84
103 105 109 111 115 120 120 124 132 145 147 146 144 142 140 136 136 135 130 125 121 111 114 114 115 114 123 120 129 130 118 111 111 109 106 106 93 87 85 84 90 90 88 87 87
Wind_Direction
218 219 214 214 215 218 215 215 220 220 221 222 226 230 235 235 240 243 245 250 256 260 265 272 274 279 286 292 299 290 287 283 283 286 288 284 285 288 292 293 293 282 265 259 251
221 220 221 216 215 216 218 217 216 219 222 223 226 228 229 227 235 238 241 245 253 257 263 264 272 280 286 292 293 286 283 279 278 281 281 283 280 279 282 287 296 295 280 267 258
219 222 223 222 220 217 218 219 218 217 219 221 223 223 224 228 233 232 236 241 246 255 258 262 269 278 283 288 289 282 277 275 275 278 279 275 279 281 278 281 290 289 282 275 271
217 221 223 225 223 221 219 219 220 220 221 221 223 226 227 231 232 232 233 238 245 247 254 261 266 273 282 286 282 276 274 273 274 275 275 278 280 282 280 282 283 288 286 282 280
222 221 222 224 226 226 224 220 220 222 223 223 224 226 226 229 229 231 234 237 240 245 251 257 266 273 279 279 273 270 271 274 274 275 274 278 282 290 280 285 282 281 284 286 283
221 224 223 222 224 226 227 224 223 223 223 225 227 229 230 231 229 230 233 237 240 244 249 255 264 270 274 274 269 266 267 270 273 276 276 274 276 282 281 283 282 284 285 288 288
212 220 227 225 225 225 227 229 229 227 225 226 226 229 230 232 232 231 234 237 240 243 247 254 262 268 270 269 265 263 265 266 270 274 276 278 277 280 281 279 283 283 284 286 288
219 216 216 227 226 227 228 228 229 230 230 229 228 229 231 232 234 235 236 237 239 242 246 252 259 263 265 264 262 261 262 265 265 268 274 279 281 284 287 287 285 283 285 283 284
219 221 219 219 227 230 228 230 231 230 231 232 232 231 231 232 235 237 240 238 239 243 247 252 255 259 262 261 260 262 265 266 265 266 271 277 281 283 286 288 287 286 288 285 286
220 220 222 222 222 223 227 229 231 232 233 233 234 235 234 232 234 236 239 239 241 242 246 251 253 256 259 258 261 267 264 264 265 267 269 273 278 279 282 285 285 287 287 285 286
221 222 221 223 224 223 224 225 229 231 232 235 234 235 235 237 235 236 238 241 243 245 247 250 251 253 255 262 262 262 264 265 264 266 267 269 276 278 278 278 281 283 284 286 290
220 220 224 225 224 226 227 227 226 228 232 235 234 233 235 237 237 237 238 239 242 245 247 250 250 253 257 259 261 261 261 262 264 266 265 266 269 278 279 276 278 282 280 282 287
222 221 222 226 226 225 227 227 228 229 226 234 234 236 235 236 238 238 239 239 242 244 246 247 248 253 257 257 258 257 258 259 263 265 260 256 261 277 281 277 279 277 277 280 283
225 223 224 225 227 227 226 227 228 230 230 231 228 234 235 238 238 241 241 242 243 245 245 245 248 250 252 253 255 256 259 263 263 262 257 256 243 273 270 275 275 275 283 282 280
229 228 226 226 226 229 228 227 228 229 229 229 234 234 234 237 236 240 241 239 242 244 245 245 247 248 252 253 256 256 259 261 260 259 256 258 252 250 269 269 273 280 281 279 283
227 231 229 229 229 228 228 230 230 229 230 226 232 234 234 237 234 240 242 243 241 243 246 247 247 250 251 253 256 255 256 259 261 261 258 257 261 247 255 265 270 275 277 281 282
229 233 232 232 232 232 231 231 231 231 230 230 228 233 235 234 237 236 240 244 244 244 246 246 246 248 251 253 256 258 257 256 258 263 263 257 257 253 253 253 259 268 275 279 285
231 232 232 234 236 233 233 232 232 230 233 232 231 230 235 237 235 236 238 240 242 246 243 245 248 249 250 252 254 255 256 259 262 260 260 261 260 260 253 250 255 260 260 276 283
229 229 230 232 233 237 235 235 233 233 233 235 235 232 233 238 239 238 239 240 242 243 241 243 245 248 248 250 254 256 258 260 262 261 260 260 259 255 255 253 258 267 267 270 274
229 229 228 233 233 234 237 237 237 236 235 236 238 237 233 235 239 241 241 240 242 245 247 247 244 243 243 249 251 255 256 258 261 262 260 257 259 262 263 262 263 268 273 275 274
230 230 231 233 235 237 241 242 238 239 238 236 237 240 238 237 239 240 241 243 244 245 248 248 249 246 246 248 247 249 250 252 254 257 260 261 261 262 266 268 266 265 267 271 273
232 234 233 234 234 237 239 242 238 237 238 240 239 238 240 240 238 239 239 242 244 245 248 249 250 249 248 248 250 253 256 260 262 263 262 263 263 266 266 269 269 264 264 269 273
236 236 235 235 236 237 239 238 236 237 242 245 243 242 243 243 241 240 240 242 243 245 247 249 251 250 249 251 254 255 255 257 260 261 260 262 263 264 266 263 267 269 270 271 271
236 237 237 237 238 239 237 239 242 243 245 246 247 246 247 248 249 247 243 241 244 245 247 249 251 252 253 252 251 252 254 257 259 261 268 265 267 265 265 266 269 270 269 271 272
235 237 237 238 239 239 241 240 239 243 244 245 245 246 247 250 251 253 250 245 244 245 246 248 252 254 253 253 255 254 254 256 259 263 263 265 265 267 266 265 263 264 266 266 267
237 237 237 238 239 240 241 241 240 242 245 244 245 247 248 249 250 251 253 252 249 248 247 248 249 251 252 254 256 256 255 257 260 262 263 264 262 262 258 261 266 266 265 267 271
239 237 237 238 239 240 242 241 242 243 244 245 246 246 249 250 251 250 250 253 256 253 252 252 253 253 251 253 254 253 256 260 260 260 262 262 263 258 263 262 261 264 268 268 269
Height
10682 10690 10694 10701 10710 10717 10723 10731 10737 10744 10751 10756 10761 10766 10771 10776 10780 10783 10786 10789 10793 10795 10796 10799 10802 10803 10805 10807 10808 10807 10809 10809 10808 10808 10808 10807 10808 10808 10806 10806 10807 10809 10809 10810 10810
10673 10680 10689 10693 10700 10708 10715 10722 10728 10734 10742 10746 10753 10757 10763 10766 10772 10775 10779 10781 10785 10788 10790 10792 10795 10798 10801 10802 10804 10803 10804 10804 10804 10804 10803 10803 10805 10806 10804 10802 10804 10804 10805 10806 10807
10662 10671 10679 10687 10694 10698 10706 10714 10720 10724 10731 10737 10743 10748 10753 10758 10764 10768 10771 10775 10778 10782 10783 10786 10789 10792 10795 10797 10799 10799 10798 10799 10800 10800 10799 10799 10800 10802 10801 10800 10800 10801 10801 10802 10803
10651 10660 10669 10678 10686 10693 10699 10706 10712 10718 10722 10728 10734 10740 10744 10749 10755 10760 10763 10768 10771 10774 10776 10780 10783 10786 10788 10791 10793 10794 10793 10794 10795 10796 10795 10795 10797 10798 10796 10797 10797 10796 10797 10798 10799
10640 10649 10657 10666 10675 10685 10692 10697 10702 10709 10716 10721 10726 10731 10736 10741 10746 10750 10755 10760 10763 10766 10769 10773 10776 10779 10782 10785 10787 10787 10787 10788 10790 10791 10792 10792 10793 10794 10791 10793 10793 10794 10794 10795 10795
10625 10638 10646 10653 10662 10671 10680 10686 10692 10698 10703 10710 10717 10723 10728 10734 10738 10742 10746 10751 10755 10758 10762 10765 10768 10772 10776 10778 10780 10780 10781 10782 10784 10785 10786 10787 10790 10790 10789 10789 10789 10789 10790 10791 10791
10609 10622 10634 10643 10650 10657 10665 10674 10681 10687 10693 10700 10706 10713 10719 10726 10730 10733 10737 10742 10745 10750 10755 10757 10760 10764 10768 10771 10773 10774 10775 10777 10778 10779 10779 10782 10785 10787 10786 10786 10786 10785 10786 10787 10786
10600 10606 10612 10628 10638 10646 10653 10659 10666 10675 10683 10689 10696 10703 10709 10715 10721 10725 10729 10733 10737 10742 10746 10749 10752 10756 10759 10762 10764 10767 10769 10771 10772 10773 10774 10777 10778 10781 10780 10780 10781 10780 10781 10782 10783
10586 10595 10603 10606 10620 10632 10640 10648 10655 10662 10670 10678 10685 10691 10698 10704 10710 10715 10719 10723 10728 10734 10737 10741 10744 10747 10750 10752 10755 10758 10762 10763 10764 10766 10770 10772 10769 10776 10773 10772 10772 10774 10775 10775 10777
10570 10579 10589 10598 10602 10610 10624 10632 10641 10650 10658 10666 10673 10682 10689 10691 10697 10703 10708 10713 10719 10724 10728 10732 10736 10739 10739 10740 10747 10753 10753 10752 10753 10759 10766 10767 10764 10768 10769 10765 10765 10766 10766 10768 10770
10553 10563 10572 10581 10591 10597 10604 10612 10624 10635 10645 10652 10661 10669 10674 10679 10687 10692 10698 10704 10710 10715 10719 10722 10728 10729 10723 10735 10740 10742 10743 10743 10741 10750 10759 10760 10760 10760 10763 10760 10759 10758 10758 10760 10761
10534 10543 10553 10562 10571 10582 10591 10597 10606 10619 10628 10636 10645 10653 10660 10664 10673 10679 10684 10691 10697 10702 10707 10713 10721 10711 10718 10726 10729 10730 10731 10730 10730 10741 10752 10751 10756 10751 10754 10755 10752 10751 10749 10754 10755
10516 10526 10534 10543 10553 10562 10573 10582 10589 10601 10606 10617 10630 10639 10643 10650 10659 10667 10672 10678 10684 10690 10694 10701 10705 10705 10708 10714 10715 10716 10719 10718 10724 10728 10740 10742 10752 10748 10742 10746 10746 10740 10741 10745 10748
10504 10510 10520 10525 10535 10541 10552 10563 10574 10585 10589 10602 10604 10618 10628 10636 10647 10654 10659 10666 10671 10676 10678 10689 10694 10693 10694 10699 10699 10705 10704 10709 10713 10717 10724 10733 10749 10743 10735 10737 10734 10729 10733 10735 10739
10487 10494 10505 10505 10517 10523 10533 10544 10551 10558 10565 10586 10596 10613 10615 10619 10637 10633 10639 10645 10656 10657 10660 10678 10676 10680 10684 10687 10683 10695 10693 10695 10698 10702 10711 10727 10730 10745 10728 10730 10723 10720 10721 10723 10730
10469 10475 10486 10492 10501 10503 10513 10522 10530 10534 10548 10576 10583 10590 10597 10605 10614 10620 10621 10628 10639 10640 10649 10659 10665 10666 10671 10671 10668 10677 10679 10679 10682 10686 10698 10714 10709 10744 10728 10724 10715 10709 10704 10709 10717
10451 10457 10465 10472 10482 10489 10493 10501 10506 10516 10545 10557 10570 10573 10577 10587 10596 10601 10603 10612 10618 10622 10639 10641 10647 10651 10652 10655 10657 10660 10662 10660 10663 10674 10691 10697 10702 10731 10718 10717 10710 10701 10694 10693 10700
10430 10438 10445 10452 10458 10468 10474 10476 10483 10513 10528 10539 10548 10555 10560 10566 10577 10583 10587 10593 10600 10611 10620 10621 10628 10637 10642 10640 10636 10636 10643 10649 10653 10659 10671 10678 10703 10713 10704 10699 10700 10697 10696 10687 10685
10408 10417 10424 10426 10435 10443 10449 10451 10479 10503 10514 10518 10525 10536 10548 10552 10558 10565 10572 10582 10586 10591 10592 10596 10606 10617 10620 10619 10616 10627 10632 10639 10629 10645 10651 10671 10684 10694 10692 10688 10682 10685 10686 10686 10683
10386 10395 10402 10404 10414 10420 10424 10440 10470 10481 10492 10495 10501 10509 10526 10534 10537 10545 10552 10569 10571 10573 10571 10574 10585 10595 10596 10600 10606 10610 10619 10617 10616 10622 10628 10656 10667 10678 10675 10673 10673 10672 10669 10668 10669
10362 10372 10379 10383 10393 10398 10411 10436 10455 10456 10460 10469 10482 10485 10504 10514 10519 10529 10538 10549 10550 10553 10549 10557 10562 10582 10583 10592 10592 10585 10595 10599 10600 10602 10611 10631 10655 10662 10661 10659 10656 10656 10655 10651 10649
10337 10348 10358 10359 10369 10383 10403 10418 10426 10431 10431 10443 10455 10467 10476 10486 10494 10501 10522 10528 10527 10529 10530 10535 10538 10556 10567 10569 10572 10576 10586 10586 10587 10596 10590 10604 10648 10650 10643 10644 10640 10635 10636 10637 10633
10308 10320 10328 10336 10347 10368 10380 10391 10393 10406 10414 10424 10432 10446 10452 10458 10465 10486 10502 10509 10503 10508 10512 10515 10510 10526 10540 10552 10561 10564 10569 10565 10561 10561 10572 10587 10632 10632 10624 10622 10617 10618 10618 10620 10621
10280 10290 10301 10313 10327 10337 10352 10363 10372 10383 10391 10400 10415 10421 10430 10437 10443 10460 10481 10481 10480 10488 10489 10486 10485 10501 10522 10530 10531 10537 10545 10543 10538 10541 10584 10565 10610 10609 10605 10602 10599 10597 10598 10600 10601
10254 10268 10276 10289 10301 10308 10316 10337 10349 10358 10364 10369 10384 10399 10409 10406 10414 10425 10444 10455 10457 10468 10463 10464 10465 10479 10500 10498 10503 10514 10522 10520 10521 10548 10530 10579 10559 10606 10581 10579 10575 10572 10572 10575 10578
10228 10244 10249 10260 10269 10274 10286 10313 10321 10329 10336 10344 10356 10368 10372 10376 10393 10401 10408 10419 10433 10444 10435 10439 10444 10455 10469 10478 10480 10483 10491 10501 10515 10525 10517 10546 10542 10578 10556 10549 10552 10549 10551 10555 10557
10203 10214 10220 10232 10241 10248 10270 10284 10290 10291 10310 10317 10324 10336 10344 10357 10361 10370 10377 10392 10397 10412 10415 10417 10423 10433 10445 10464 10444 10434 10480 10494 10489 10495 10501 10505 10542 10533 10539 10534 10521 10525 10534 10535 10536